Weather History for LTBA - November, 2012

Change the Weather History Date:

Tuesday, November 6, 2012

  Actual Average Record
Temperature  
Mean Temperature 67 °F -  
Max Temperature 72 °F 55 °F 73 °F (2013)
Min Temperature 62 °F 46 °F 44 °F (2006)
Cooling Degree Days 2    
Growing Degree Days 17 (Base 50)    
Moisture  
Dew Point 58 °F    
Average Humidity 69    
Maximum Humidity 94    
Minimum Humidity 55    
Precipitation  
Precipitation 0.12 in - - ()
Sea Level Pressure  
Sea Level Pressure 29.89 in    
Wind  
Wind Speed 15 mph ()    
Max Wind Speed 28 mph    
Max Gust Speed 34 mph    
Visibility 5.9 miles    
Events Rain    
Averages and records for this station are not official NWS values.
T = Trace of Precipitation, MM = Missing Value Source: Averaged Metar Reports

Daily Weather History Graph

Daily Weather History Graph

Search for Another Location

Airport or City:

Trip Planner

Search our weather history database for the weather conditions in past years. The results will help you decide how hot, cold, wet, or windy it might be!

Date:

Astronomy

Nov. 06, 2012 Rise Set
Actual Time 6:41 AM EET 4:54 PM EET
Civil Twilight 6:12 AM EET 5:23 PM EET
Nautical Twilight 5:40 AM EET 5:56 PM EET
Astronomical Twilight 5:07 AM EET 6:28 PM EET
Moon 11:13 PM EET (11/6) 12:23 PM EET (11/6)
Length of Visible Light 11h 10m
Length of Day
10h 12m
Waning Gibbous, 56% of the Moon is Illuminated
Nov 6
Waning Gibbous
Nov 7
Last Quarter
Nov 14
New
Nov 20
First Quarter
Nov 28
Full

Hourly Weather History & Observations

Time (EET) Temp. Dew Point Humidity Pressure Visibility Wind Dir Wind Speed Gust Speed Precip Events Conditions
12:20 AM 66.2 °F 57.2 °F 73% 29.86 in - SSW 12.7 mph - N/A   Clear
12:50 AM 68.0 °F 57.2 °F 68% 29.86 in - SSW 19.6 mph - N/A   Clear
1:20 AM 66.2 °F 55.4 °F 68% 29.86 in - SSW 20.7 mph - N/A   Clear
1:50 AM 66.2 °F 55.4 °F 68% 29.83 in - SSW 21.9 mph - N/A   Clear
2:00 AM 67 °F 56 °F 58% 29.85 in 6 mi SSW 21.9 mph - -   Partly Cloudy
2:20 AM 66.2 °F 57.2 °F 73% 29.83 in - SSW 19.6 mph - N/A   Clear
2:50 AM 68.0 °F 57.2 °F 68% 29.83 in - SSW 24.2 mph - N/A   Clear
3:20 AM 68.0 °F 55.4 °F 64% 29.83 in - SSW 26.5 mph - N/A   Clear
3:50 AM 66.2 °F 55.4 °F 68% 29.80 in 6.2 mi SSW 25.3 mph - N/A   Scattered Clouds
4:20 AM 68.0 °F 55.4 °F 64% 29.83 in 6.2 mi SSW 25.3 mph - N/A   Scattered Clouds
4:50 AM 68.0 °F 55.4 °F 64% 29.83 in 6.2 mi SSW 23.0 mph 34.5 mph N/A   Scattered Clouds
5:50 AM 66.2 °F 55.4 °F 68% 29.86 in 6.2 mi SSW 16.1 mph - N/A   Scattered Clouds
6:20 AM 66.2 °F 55.4 °F 68% 29.83 in 6.2 mi SSW 17.3 mph - N/A   Scattered Clouds
6:50 AM 68.0 °F 55.4 °F 64% 29.83 in 6.2 mi SSW 24.2 mph - N/A   Mostly Cloudy
7:20 AM 68.0 °F 57.2 °F 68% 29.83 in 6.2 mi SSW 21.9 mph - N/A   Mostly Cloudy
7:50 AM 68.0 °F 55.4 °F 64% 29.83 in 6.2 mi SSW 27.6 mph - N/A   Mostly Cloudy
8:00 AM 68 °F 55 °F 55% 29.84 in 6 mi SSW 27.6 mph - -   Partly Cloudy
8:20 AM 68.0 °F 55.4 °F 64% 29.86 in 6.2 mi SSW 24.2 mph - N/A   Mostly Cloudy
8:50 AM 68.0 °F 55.4 °F 64% 29.86 in 6.2 mi SSW 23.0 mph - N/A   Mostly Cloudy
9:20 AM 69.8 °F 57.2 °F 64% 29.86 in 6.2 mi South 18.4 mph - N/A   Scattered Clouds
9:50 AM 69.8 °F 55.4 °F 60% 29.86 in 6.2 mi SSW 23.0 mph 34.5 mph N/A   Scattered Clouds
10:20 AM 71.6 °F 57.2 °F 60% 29.89 in 6.2 mi SSW 16.1 mph - N/A   Scattered Clouds
10:50 AM 71.6 °F 57.2 °F 60% 29.89 in 6.2 mi SW 17.3 mph - N/A   Mostly Cloudy
11:20 AM 69.8 °F 57.2 °F 64% 29.89 in 6.2 mi SW 13.8 mph - N/A   Mostly Cloudy
11:50 AM 69.8 °F 57.2 °F 64% 29.89 in 6.2 mi SW 11.5 mph - N/A   Mostly Cloudy
12:20 PM 69.8 °F 59.0 °F 68% 29.89 in 6.2 mi SW 10.4 mph - N/A   Mostly Cloudy
12:50 PM 69.8 °F 57.2 °F 64% 29.89 in 6.2 mi SW 11.5 mph - N/A   Mostly Cloudy
1:20 PM 69.8 °F 59.0 °F 68% 29.89 in 6.2 mi WSW 6.9 mph - N/A   Mostly Cloudy
1:50 PM 69.8 °F 59.0 °F 68% 29.89 in 6.2 mi West 4.6 mph - N/A   Mostly Cloudy
2:00 PM 69 °F 59 °F 63% 29.90 in 6 mi WNW 4.6 mph - -   Partly Cloudy
2:20 PM 69.8 °F 59.0 °F 68% 29.89 in 6.2 mi West 5.8 mph - N/A   Mostly Cloudy
2:50 PM 69.8 °F 59.0 °F 68% 29.89 in 6.2 mi West 5.8 mph - N/A   Mostly Cloudy
3:20 PM 69.8 °F 59.0 °F 68% 29.92 in 6.2 mi WSW 4.6 mph - N/A   Mostly Cloudy
3:50 PM 69.8 °F 59.0 °F 68% 29.92 in 6.2 mi WSW 4.6 mph - N/A   Mostly Cloudy
4:20 PM 69.8 °F 59.0 °F 68% 29.89 in 6.2 mi SW 4.6 mph - N/A   Mostly Cloudy
4:50 PM 69.8 °F 57.2 °F 64% 29.92 in 6.2 mi Variable 2.3 mph - N/A   Mostly Cloudy
5:20 PM 69.8 °F 57.2 °F 64% 29.92 in 6.2 mi Variable 1.2 mph - N/A   Mostly Cloudy
5:50 PM 69.8 °F 57.2 °F 64% 29.92 in 6.2 mi Variable 2.3 mph - N/A   Mostly Cloudy
6:20 PM 69.8 °F 59.0 °F 68% 29.92 in 6.2 mi Variable 2.3 mph - N/A   Mostly Cloudy
6:50 PM 69.8 °F 59.0 °F 68% 29.92 in 6.2 mi Variable 1.2 mph - N/A   Mostly Cloudy
7:20 PM 69.8 °F 59.0 °F 68% 29.92 in 6.2 mi Variable 2.3 mph - N/A   Mostly Cloudy
7:50 PM 69.8 °F 60.8 °F 73% 29.92 in 6.2 mi West 4.6 mph - N/A   Mostly Cloudy
8:00 PM 70 °F 60 °F 61% 29.94 in 6 mi West 4.6 mph - -   Partly Cloudy
8:20 PM 68.0 °F 60.8 °F 78% 29.92 in 5.0 mi NNW 6.9 mph - N/A Rain Light Rain Showers
8:50 PM 68.0 °F 60.8 °F 78% 29.95 in 5.0 mi NNE 8.1 mph - N/A Rain Light Rain Showers
9:20 PM 64.4 °F 59.0 °F 83% 29.95 in 5.0 mi North 12.7 mph - N/A Rain Light Rain Showers
9:50 PM 64.4 °F 59.0 °F 83% 29.95 in 5.0 mi North 13.8 mph - N/A Rain Light Rain Showers
10:20 PM 64.4 °F 60.8 °F 88% 29.95 in 5.0 mi NNE 12.7 mph - N/A Rain Light Rain Showers
10:50 PM 62.6 °F 60.8 °F 94% 29.98 in 2.5 mi NNE 10.4 mph - N/A Rain Rain Showers
11:20 PM 62.6 °F 60.8 °F 94% 29.98 in 4.3 mi NNE 12.7 mph - N/A Rain Light Rain Showers
11:50 PM 62.6 °F 60.8 °F 94% 29.98 in 4.3 mi NNE 10.4 mph - N/A Rain Light Rain Showers